SCP
0 0 0 0 0 0 0 0 0 0 0 0 0 0 0 0 0 0 0 0 0 0 0 0 0 0 0 0 0 0 0 0 0 0 0 0 0 0 0 0 0 0 0
0 0 0 0 0 0 0 0 0 0 0 0 0 0 0 0 0 0 0 0 0 0 0 0 0 0 0 0 0 0 0 0 0 0 0 0 0 0 0 0 0 0 0
0 0 0 0 0 -0 0 0 0 0 0 0 0 0 0 0 0 0 0 0 0 0 0 0 0 0 0 0 0 0 -0 -0 -0 0 0 0 0 0 0 0 0 0 0
0 0 0 0 0 -0 -0 0 0 0 0 0 0 0 0 0 0 0 0 0 0 0 0 0 0 0 0 0 0 0 -0 -0 -0 0 0 0 0 0 0 0 0 0 0
0 0 0 0 0 -0 -0 0 0 0 0 0 0 0 0 0 0 0 0 0 0 0 0 0 0 0 0 0 0 0 0 -0 -0 0 0 0 0 0 0 0 0 0 -0
0 0 0 0 0 0 -0 0 0 0 0 0 0 0 0 0 0 0 0 0 0 0 0 0 0 0 0 0 0 0 0 0 0 0 0 0 0 0 0 0 0 -0 -0
0 0 0 0 0 0 0 0 0 0 0 0 0 0 0 0 0 0 0 0 0 0 0 0 0 0 0 0 0 0 0 0 0 0 0 0 0 0 0 0 -0 -0 -0
0 0 0 0 0 0 0 0 0 0 0 0 0 0 0 0 0 0 0 0 0 0 0 0 0 0 0 0 0 0 0 0 0 0 0 0 0 0 0 0 -0 -0 -0
0 0 0 0 0 0 0 0 0 0 0 0 0 0 0 0 0 0 0 0 0 0 0 0 0 0 0 0 0 0 0 0 0 0 0 0 0 0 0 0 -0 -0 -0
0 0 0 0 0 0 0 0 0 0 0 0 0 0 0 0 0 0 0 0 0 0 0 0 0 0 0 0 0 0 0 0 0 0 0 0 0 0 0 0 0 0 0
0 0 0 0 0 0 0 0 0 0 0 0 0 0 0 0 0 0 0 0 0 0 0 0 0 0 0 0 0 0 0 0 0 0 0 0 0 0 0 0 0 0 0
0 0 0 0 0 0 0 0 0 0 0 0 0 0 0 0 0 0 0 0 0 0 0 0 0 0 0 0 0 0 0 0 0 0 0 0 0 0 0 0 0 0 0
0 0 0 0 0 0 0 0 0 0 0 0 0 0 0 0 0 0 0 0 0 0 0 0 0 0 0 0 0 0 0 0 0 0 0 0 0 0 0 0 0 0 0
-0 -0 0 0 0 0 0 0 0 0 0 0 0 0 0 0 0 0 0 0 0 0 0 0 0 0 0 0 0 0 0 0 0 0 0 0 0 0 0 0 0 0 0
0 0 0 0 0 0 0 0 0 0 0 0 0 0 0 0 0 0 0 0 0 0 0 0 0 0 0 0 0 0 0 0 0 0 0 0 0 0 0 0 0 0 0
0 0 0 0 0 0 0 0 0 0 0 0 0 0 0 0 0 0 0 0 0 0 0 0 0 0 0 0 0 0 0 0 0 0 0 0 0 0 0 0 0 0 0
0 0 0 0 0 0 0 0 0 0 0 0 0 0 0 0 0 0 0 0 0 0 0 0 0 0 0 0 0 0 0 0 0 0 0 0 0 0 0 0 0 0 0
0 0 0 0 0 0 0 0 0 0 0 0 0 0 0 0 0 0 0 0 0 0 0 0 0 0 0 0 0 0 0 0 0 0 0 0 0 0 0 0 0 0 0
0 0 0 0 0 0 0 0 0 0 0 0 0 0 0 0 0 0 0 0 0 0 0 0 0 0 0 0 0 0 0 0 0 0 0 0 0 0 0 0 0 0 0
-0 -0 0 0 0 0 0 0 0 0 0 0 0 0 0 0 0 0 0 0 0 0 0 0 0 0 0 0 0 0 0 0 0 0 0 0 0 0 0 0 0 0 0
0 0 0 0 0 0 0 0 0 0 0 0 0 0 0 0 0 0 0 0 0 0 0 0 0 0 0 0 0 0 0 0 0 0 0 0 0 0 0 0 0 0 0
0 0 0 0 0 0 0 0 0 0 0 0 0 0 0 0 0 0 0 0 0 0 0 0 0 0 0 0 0 0 0 0 0 0 0 0 0 0 0 0 0 0 0
0 0 0 0 0 0 0 0 0 0 0 0 0 0 0 0 0 0 0 0 0 0 0 0 0 0 0 0 0 0 0 0 0 0 0 0 0 0 0 0 0 0 0
0 0 0 0 0 0 0 0 0 0 0 0 0 0 0 0 0 0 0 0 0 0 0 0 0 0 0 0 0 0 0 0 0 0 0 0 0 0 0 0 0 0 0
0 0 0 0 0 0 0 0 0 0 0 0 0 0 0 0 0 0 0 0 0 0 0 0 0 0 0 0 0 0 0 0 0 0 0 0 0 0 0 0 0 0 0
0 0 0 0 0 0 0 0 0 0 0 0 0 0 0 0 0 0 0 0 0 0 0 0 0 0 0 0 0 0 0 0 0 0 0 0 0 0 0 0 0 0 0
Wind_Speed
3 3 3 3 3 3 4 4 4 4 3 3 3 3 2 2 2 2 3 3 3 3 3 2 3 2 2 3 3 3 3 2 2 2 1 1 1 1 1 1 0 1 0
1 1 2 2 3 3 4 4 4 4 4 3 3 2 2 2 2 2 2 3 3 3 2 3 2 2 2 3 4 3 2 2 1 1 2 2 3 2 1 1 1 1 1
2 2 2 2 3 3 4 4 4 4 4 4 3 3 2 2 2 2 2 2 2 3 2 3 3 3 3 3 3 4 4 3 2 2 2 2 2 1 2 3 2 2 2
2 2 2 2 2 3 3 3 4 4 3 4 4 5 4 3 2 2 2 2 2 2 2 2 3 3 3 3 3 4 3 4 3 2 1 2 2 2 2 3 3 3 3
2 2 2 2 1 2 2 3 3 3 3 3 4 5 3 2 2 2 3 2 2 2 2 2 3 3 2 3 3 3 4 3 3 3 2 2 2 3 3 3 3 3 3
1 1 1 1 1 1 2 2 3 3 3 3 3 4 4 3 3 3 2 2 2 2 3 2 2 3 3 3 3 3 4 3 4 3 3 3 3 3 3 4 4 4 3
1 1 1 1 1 2 2 2 3 3 3 3 3 3 4 4 4 3 3 3 2 2 3 3 2 2 3 3 3 3 3 3 4 3 3 3 3 3 3 4 4 4 3
1 1 1 1 1 1 2 3 3 3 3 3 3 3 3 3 2 3 3 3 2 2 2 2 2 2 3 3 3 2 3 3 3 3 3 3 3 3 3 4 4 4 4
1 1 1 1 1 1 2 3 3 3 3 3 3 3 2 3 3 3 3 2 2 2 3 3 3 3 3 3 3 3 3 3 3 3 4 3 3 3 3 3 4 4 5
2 2 1 1 0 1 2 2 3 3 3 3 3 2 2 3 3 3 3 2 2 2 3 3 3 3 2 3 3 3 3 4 4 3 4 4 3 3 3 3 4 4 5
2 2 1 0 0 1 1 1 2 2 2 2 2 2 2 2 3 3 3 3 3 3 3 3 3 3 3 3 3 3 4 4 4 4 5 5 5 4 3 3 4 4 4
2 1 1 0 1 1 1 1 1 2 2 2 2 2 2 2 2 2 3 3 3 3 3 3 3 3 3 3 4 4 5 5 5 5 5 5 4 5 4 4 5 5 5
1 1 1 1 1 1 1 1 2 2 1 2 2 2 2 2 3 2 2 3 3 3 3 4 4 4 4 4 4 5 5 5 6 6 6 6 6 6 5 5 5 4 5
1 1 1 1 1 1 2 2 2 1 2 2 2 2 2 2 2 2 2 2 3 3 4 4 4 4 4 5 5 5 5 5 5 6 6 6 6 7 6 5 6 5 6
2 2 2 2 2 2 2 2 2 2 2 2 2 2 2 2 2 2 2 2 3 3 3 3 4 4 4 4 5 5 5 5 6 6 6 6 7 7 7 6 6 6 5
3 3 3 3 3 3 3 3 3 2 3 3 3 2 2 2 2 2 2 2 3 3 3 4 4 4 4 5 6 6 5 6 6 6 6 6 7 8 9 10 10 9 8
4 4 4 4 4 4 3 3 3 2 3 3 3 2 2 2 2 2 2 3 3 3 4 4 4 5 5 6 7 8 6 6 6 6 6 5 5 7 7 8 10 10 11
4 4 4 4 4 3 3 3 2 2 3 3 3 2 2 2 2 3 3 3 3 3 3 4 4 5 5 6 7 7 7 6 6 6 6 6 6 6 6 6 7 8 8
4 3 3 3 3 3 2 2 3 3 3 3 3 3 3 3 3 3 3 3 3 3 4 4 4 5 5 6 6 6 5 5 6 6 6 6 6 7 8 7 7 7 6
3 3 3 2 2 1 2 2 3 3 3 3 3 3 3 4 4 4 3 3 3 3 3 4 5 5 6 6 6 6 4 5 5 5 5 7 8 8 8 7 7 7 6
3 3 2 2 2 1 2 3 3 3 3 3 3 3 3 4 4 3 3 3 3 3 4 4 4 5 5 6 7 7 5 5 5 5 4 4 7 9 9 8 7 7 7
3 2 2 2 1 1 2 3 3 3 3 3 3 3 3 3 2 3 3 3 3 3 3 4 4 4 4 5 6 7 7 7 6 5 4 4 6 8 8 7 7 8 8
3 2 2 2 2 2 2 3 3 2 3 3 3 3 3 3 3 3 3 3 3 3 3 3 4 4 3 4 6 7 8 8 6 5 6 6 7 6 6 6 8 7 5
3 2 2 2 3 3 3 3 3 3 3 4 3 3 3 3 3 3 3 3 3 3 4 4 4 4 4 4 3 4 4 5 5 5 5 7 7 6 5 5 5 4 4
3 3 3 3 3 3 3 3 3 3 4 4 3 3 3 3 3 3 3 4 4 4 5 4 4 4 5 5 6 5 4 4 4 4 4 4 4 4 4 3 3 4 4
3 3 3 4 4 3 3 3 3 3 4 4 4 3 3 3 3 3 3 4 5 7 8 7 7 6 7 7 7 8 8 8 7 5 4 4 4 4 4 4 4 4 4
Wind_Direction
267 244 229 227 220 212 197 185 191 184 177 165 165 164 165 163 166 167 165 161 156 153 164 164 164 175 186 182 171 155 150 147 148 161 158 170 182 190 201 210 181 133 194
270 222 210 210 210 207 200 183 189 185 185 173 160 166 159 169 163 163 165 165 160 154 170 175 172 179 186 182 177 170 168 155 201 219 199 205 199 188 206 222 228 230 252
243 213 203 211 206 200 203 190 185 183 181 164 148 136 139 145 149 157 157 159 155 157 167 183 182 185 196 190 190 186 189 186 194 231 250 242 231 198 199 220 230 235 244
255 226 212 212 215 202 198 191 180 175 174 166 166 166 173 181 180 167 155 148 146 155 169 183 189 188 195 193 195 202 200 194 197 192 236 289 314 253 228 209 222 244 256
261 234 224 211 206 190 188 178 168 163 167 180 177 179 181 172 142 152 155 150 144 166 171 181 189 190 193 195 193 199 206 206 205 204 204 209 232 255 253 253 246 243 245
260 234 215 180 153 158 169 164 162 165 174 184 185 183 179 162 159 176 174 174 165 169 174 180 189 194 191 194 196 199 207 212 208 208 214 215 223 229 241 253 256 262 258
252 205 185 168 166 170 164 170 171 169 178 185 188 191 183 172 179 191 192 190 184 186 177 177 188 197 192 191 191 196 207 209 209 215 218 224 234 243 249 258 264 270 272
249 222 224 222 209 187 171 176 182 176 179 186 191 194 187 179 179 196 198 197 196 193 175 181 193 199 195 191 188 197 204 205 208 218 223 229 233 234 237 245 256 267 263
283 264 245 228 218 190 175 189 188 184 185 188 192 196 191 184 184 196 200 196 193 182 178 184 195 200 202 200 195 206 210 208 212 218 223 230 235 238 241 241 246 257 267
318 300 292 274 223 160 157 176 187 187 187 190 198 202 199 192 186 194 195 194 192 186 182 191 201 204 209 210 210 215 215 214 218 221 222 227 233 234 235 235 238 245 259
310 299 291 264 112 126 142 162 174 175 180 186 199 205 211 205 194 198 204 201 199 199 201 203 208 212 219 223 222 223 220 220 224 225 226 229 232 231 232 233 235 241 246
300 288 282 214 157 156 176 192 186 180 184 186 196 209 220 217 209 211 213 209 206 209 210 213 216 223 229 232 232 232 227 224 227 230 230 231 233 233 235 234 235 240 245
299 289 238 220 196 189 205 218 205 192 182 181 194 206 216 224 220 222 220 216 211 212 215 220 222 226 233 237 239 240 237 233 234 237 236 235 233 235 236 240 244 245 247
271 244 247 251 241 223 221 223 216 200 192 198 210 219 226 239 232 230 230 226 219 218 222 228 233 235 237 238 239 242 244 242 242 243 242 242 238 241 241 243 245 248 251
271 255 250 249 248 242 233 228 213 202 202 212 225 235 236 245 231 222 225 226 227 228 229 232 237 239 241 239 240 242 245 247 248 248 245 244 245 250 250 249 247 247 251
275 277 265 255 245 238 236 225 212 206 209 217 231 237 229 237 227 220 222 221 227 231 232 237 240 244 248 244 249 253 248 248 247 250 251 249 245 245 248 251 253 252 253
278 274 264 258 252 244 235 229 222 214 218 223 227 228 230 237 231 218 218 222 229 234 241 246 249 252 249 246 250 253 255 253 252 252 252 252 250 248 248 250 251 251 254
275 267 266 262 255 250 240 233 226 221 227 232 232 235 237 240 235 225 229 232 235 238 246 251 253 256 252 251 258 258 254 253 253 253 254 255 255 251 253 257 256 255 252
281 273 270 266 256 246 235 224 224 221 227 238 243 242 239 238 234 232 237 241 243 247 253 255 255 258 258 253 259 262 259 255 258 258 256 254 257 253 254 257 258 260 259
291 284 280 269 255 239 219 224 230 230 237 246 251 247 243 240 238 238 240 247 247 253 260 260 259 259 262 255 256 258 255 257 262 262 259 254 254 259 256 256 256 260 266
305 297 280 264 264 250 227 237 244 249 256 255 255 255 248 248 246 243 242 244 249 253 257 261 263 262 263 259 257 255 254 254 261 263 262 258 252 258 262 261 260 264 274
310 306 291 290 290 255 240 251 260 270 269 257 252 256 256 256 250 242 244 244 244 250 257 262 268 267 264 262 258 258 261 263 260 262 267 270 265 264 266 264 263 268 270
313 311 300 299 301 281 260 261 272 275 267 262 260 261 264 258 246 235 237 241 241 246 253 259 264 270 270 263 260 263 264 264 262 264 270 275 275 272 269 266 268 267 260
308 306 298 290 295 295 279 270 275 271 260 259 263 263 262 260 253 245 238 239 240 244 249 253 259 267 268 265 262 262 263 261 261 264 266 266 266 264 270 273 268 262 260
306 297 288 287 293 296 289 283 278 269 263 263 263 259 256 256 254 253 251 250 248 250 254 255 257 260 265 268 272 274 268 264 265 275 269 263 261 261 262 265 267 264 260
306 302 297 296 298 295 290 288 282 269 263 266 268 265 257 251 251 257 265 261 258 260 261 263 265 267 270 278 276 277 277 276 269 265 258 258 260 262 264 266 267 263 261